[[{"header":{"parameterUnit":"m.s-1","parameterCategory":1,"la1":30.2991,"la2":30.254,"lo1":-89.0895,"lo2":-89.0444,"dy":0.0017,"dx":0.0017,"nx":28,"ny":28,"refTime":"2026-01-09T09:00:00:Z","depth":0,"parameterNumber":2,"parameterNumberName":"U-component_of_WINDS"},"data":[0,0,0,0,0,0,0,0,0,0,0,0,0,0,0,0,0,0,0,0,0,0,0,0,0,0,0,0,0,0,0,0,0,0,0,0,0,0,0,0,0,0,0,0,0,0,0,0,0,0,0,0,0,0,0,0,0,0,1.5317,1.5318,0,1.5332,1.5332,1.5332,1.5324,1.5323,1.5323,1.5322,1.5337,1.5338,1.5339,0,0,0,0,0,0,0,0,0,0,0,0,0,1.5282,1.5283,1.5317,1.5318,1.5318,1.5332,1.5332,1.5333,1.5324,1.5323,1.5323,1.5322,1.5337,1.5338,1.5339,0,0,0,0,0,0,0,0,0,0,0,0,0,1.5297,1.5283,1.5317,1.5315,1.5315,1.5332,1.5332,1.5333,1.5324,1.5323,1.5323,1.5322,1.5337,1.5338,1.5339,1.5359,0,0,1.5342,1.5343,0,0,0,0,0,0,0,0,1.5297,1.5299,1.5315,1.5315,1.5315,1.5325,1.5325,1.5341,1.5324,1.5321,1.5322,1.5322,1.5334,1.5335,1.5339,1.5359,1.536,1.5343,1.5343,1.5344,1.5344,0,0,0,0,0,0,0,1.5296,1.5298,1.5323,1.5316,1.5316,1.5314,1.5315,1.5328,1.533,1.5321,1.532,1.5322,1.5334,1.5338,1.5339,1.536,1.5342,1.5344,1.5344,1.5345,1.5399,1.54,0,0,0,0,0,0,1.5295,1.5297,1.5323,1.5324,1.5304,1.5315,1.5316,1.5323,1.533,1.5331,1.5323,1.5322,1.5336,1.5338,1.534,1.5364,1.5344,1.5345,1.5345,1.5398,1.5399,1.54,0,0,0,0,0,0,1.5294,1.5297,1.5322,1.531,1.5313,1.5316,1.5323,1.5323,1.5328,1.5332,1.5332,1.5327,1.5336,1.5338,1.5354,1.5365,1.5345,1.5346,1.5397,1.5399,1.54,1.5413,0,0,0,0,0,0,1.5293,1.5297,1.5304,1.5311,1.5314,1.5336,1.5324,1.5324,1.533,1.5329,1.5336,1.5336,1.5336,1.5353,1.5356,1.5366,1.5347,1.5397,1.5398,1.5399,1.5411,1.5414,1.5417,0,0,0,0,0,1.5292,1.5307,1.5304,1.5307,1.5323,1.5337,1.5339,1.5338,1.5331,1.5338,1.5341,1.5336,1.5363,1.5355,1.5358,1.5368,1.5396,1.5398,1.5399,1.541,1.5414,1.5417,0,0,0,0,0,0,1.53,1.5307,1.5305,1.5322,1.5329,1.5335,1.5344,1.5341,1.535,1.5348,1.5347,1.5349,1.5366,1.5369,1.5359,1.5389,1.5379,1.5381,1.5386,1.5389,1.5392,1.539,1.5348,0,0,0,0,0,1.5305,1.5315,1.5321,1.5335,1.5339,1.5341,1.5347,1.5346,1.5353,1.5356,1.5359,1.5366,1.5377,1.5383,1.5393,1.5412,1.5414,1.5422,1.5424,1.5426,1.5428,1.544,1.5443,1.5406,1.5406,1.5405,0,0,1.5313,1.5318,1.5324,1.5337,1.5342,1.5354,1.5344,1.5355,1.5364,1.5357,1.5373,1.5376,1.5384,1.5402,1.541,1.5405,1.5439,1.5428,1.543,1.5431,1.5442,1.5445,1.5448,1.5407,1.5406,1.5406,0,0,1.5333,1.5338,1.5351,1.5357,1.5365,1.5367,1.5371,1.5378,1.538,1.5396,1.5392,1.5402,1.5419,1.5425,1.543,1.5456,1.5452,1.5459,1.5472,1.5484,1.5487,1.5489,1.5498,1.5502,1.5461,1.5461,1.5461,0,1.5342,1.5358,1.5359,1.5371,1.5377,1.5373,1.5387,1.5393,1.5404,1.5408,1.5403,1.5426,1.543,1.545,1.5457,1.5461,1.5466,1.5458,1.5486,1.5489,1.5491,1.55,1.5504,1.5462,1.5462,1.5462,1.5462,0,1.5369,1.5381,1.5391,1.5402,1.541,1.5423,1.5426,1.5433,1.5433,1.5435,1.5452,1.5458,1.5469,1.5474,1.5473,1.5495,1.5492,1.5486,1.5476,1.5496,1.5504,1.5507,1.5463,1.5463,1.5463,1.5463,0,0,1.5393,1.5406,1.541,1.5416,1.5426,1.5435,1.5449,1.546,1.5467,1.5475,1.5487,1.5503,1.5499,1.5505,1.5505,1.5515,1.5535,1.5508,1.5509,1.5513,1.556,1.5564,1.5567,1.5533,1.5534,1.5534,1.5559,0,1.5414,1.5438,1.544,1.5461,1.5473,1.547,1.5482,1.549,1.5494,1.5504,1.5508,1.5519,1.5513,1.5516,1.5526,1.5531,1.5545,1.5529,1.5544,1.5544,1.5541,1.5572,1.5575,1.5598,1.5563,1.5563,1.5564,0,1.5441,1.5451,1.5474,1.5484,1.5489,1.55,1.5511,1.5521,1.5531,1.5533,1.5541,1.554,1.5555,1.5545,1.5565,1.5555,1.5561,1.5565,1.5566,1.5566,1.5554,1.5573,1.5605,1.5609,1.5569,1.5568,1.5568,0,1.5457,1.5476,1.5492,1.5498,1.5509,1.5517,1.5523,1.5531,1.5539,1.5549,1.5554,1.5566,1.5573,1.5582,1.5585,1.5577,1.5606,1.5596,1.5608,1.5608,1.5613,1.5612,1.5647,1.5618,1.5618,1.5618,1.5618,0,1.5479,1.5493,1.55,1.551,1.5526,1.5529,1.5545,1.555,1.5558,1.5569,1.5568,1.5579,1.5582,1.5594,1.5596,1.5613,1.5616,1.5618,1.5619,1.5618,1.5618,1.5622,1.562,1.5619,1.5619,1.5619,1.5618,0,1.5498,1.5503,1.5521,1.5532,1.5535,1.5546,1.5555,1.5565,1.557,1.5584,1.5588,1.5594,1.5608,1.5612,1.5629,1.563,1.5651,1.565,1.5647,1.5647,1.5659,1.5658,1.5696,1.5702,1.567,1.5671,1.5671,0,1.5512,1.5523,1.5535,1.5543,1.5549,1.5561,1.5569,1.5573,1.5582,1.5594,1.5603,1.5617,1.5628,1.565,1.5657,1.567,1.5669,1.5682,1.5671,1.567,1.5669,1.5668,1.5669,1.5683,1.5684,1.5684,1.5684,0,1.5536,1.5538,1.555,1.5563,1.5573,1.5583,1.5593,1.56,1.5605,1.5615,1.5629,1.5638,1.5656,1.567,1.5683,1.5689,1.5688,1.5688,1.5691,1.569,1.5688,1.569,1.5652,1.5687,1.5686,1.5686,1.5686,1.5686,1.5552,1.5562,1.5573,1.5587,1.5595,1.5605,1.5615,1.5622,1.5634,1.5648,1.565,1.5666,1.5677,1.5695,1.5702,1.5715,1.5711,1.5716,1.5717,1.5718,1.5719,1.5687,1.5717,1.5717,1.5717,1.5717,1.5717,0,1.5576,1.5583,1.5596,1.561,1.5621,1.562,1.5632,1.5641,1.5655,1.5666,1.5677,1.5695,1.5709,1.5717,1.5731,1.574,1.574,1.5744,1.5743,1.5744,1.5722,1.5717,1.5744,1.5744,1.5744,1.5744,1.5744,1.5744,1.5589,1.5607,1.5611,1.5633,1.564,1.5656,1.5663,1.5672,1.5681,1.57,1.5712,1.5718,1.5728,1.5744,1.5757,1.5759,1.5764,1.5768,1.577,1.5748,1.5746,1.5743,1.5739,1.577,1.577,1.5792,1.5792,1.5792]},{"header":{"parameterUnit":"m.s-1","parameterCategory":1,"la1":30.2991,"la2":30.254,"lo1":-89.0895,"lo2":-89.0444,"dy":0.0017,"dx":0.0017,"nx":28,"ny":28,"refTime":"2026-01-09T09:00:00:Z","depth":0,"parameterNumber":3,"parameterNumberName":"V-component_of_WINDS"},"data":[0,0,0,0,0,0,0,0,0,0,0,0,0,0,0,0,0,0,0,0,0,0,0,0,0,0,0,0,0,0,0,0,0,0,0,0,0,0,0,0,0,0,0,0,0,0,0,0,0,0,0,0,0,0,0,0,0,0,-8.8777,-8.8779,0,-8.895,-8.8951,-8.8953,-8.8872,-8.8868,-8.8864,-8.886,-8.9029,-8.9038,-8.9046,0,0,0,0,0,0,0,0,0,0,0,0,0,-8.8373,-8.8381,-8.8777,-8.8779,-8.8782,-8.8949,-8.8952,-8.8954,-8.8873,-8.8868,-8.8863,-8.8858,-8.9026,-8.9037,-8.9047,0,0,0,0,0,0,0,0,0,0,0,0,0,-8.8547,-8.8383,-8.8777,-8.8762,-8.8762,-8.8949,-8.8952,-8.8955,-8.8874,-8.8868,-8.8861,-8.8855,-8.9023,-8.9036,-8.9048,-8.9258,0,0,-8.9088,-8.9093,0,0,0,0,0,0,0,0,-8.8537,-8.8562,-8.8762,-8.8763,-8.8764,-8.8883,-8.8871,-8.9056,-8.8876,-8.8831,-8.886,-8.8852,-8.8985,-8.9001,-8.9047,-8.9266,-8.9273,-8.9089,-8.9096,-8.9102,-8.9106,0,0,0,0,0,0,0,-8.8525,-8.8554,-8.8845,-8.8765,-8.8766,-8.8744,-8.8762,-8.8906,-8.8943,-8.8835,-8.8829,-8.8851,-8.8985,-8.9035,-8.9051,-8.9276,-8.9088,-8.91,-8.9108,-8.9113,-8.9676,-8.9683,0,0,0,0,0,0,-8.8515,-8.8545,-8.884,-8.885,-8.8632,-8.8757,-8.8777,-8.8851,-8.8941,-8.8948,-8.8857,-8.8847,-8.9016,-8.9036,-8.9056,-8.9309,-8.9102,-8.9114,-8.9121,-8.9669,-8.9677,-8.9685,0,0,0,0,0,0,-8.8506,-8.8542,-8.8833,-8.8696,-8.8732,-8.8771,-8.8855,-8.8858,-8.8908,-8.8958,-8.8963,-8.8902,-8.9012,-8.9038,-8.9209,-8.9314,-8.912,-8.9131,-8.966,-8.9671,-8.9681,-8.9815,0,0,0,0,0,0,-8.8495,-8.8539,-8.862,-8.8699,-8.8739,-8.8985,-8.8862,-8.8866,-8.8932,-8.892,-8.9001,-8.9008,-8.9009,-8.9191,-8.9222,-8.9328,-8.9141,-8.9651,-8.9665,-8.9678,-8.9801,-8.9829,-8.9853,0,0,0,0,0,-8.8481,-8.8649,-8.8625,-8.8661,-8.8842,-8.8991,-8.9014,-8.9013,-8.894,-8.9022,-8.9053,-8.9006,-8.9297,-8.9209,-8.9243,-8.9355,-8.9644,-8.9661,-8.9677,-8.979,-8.9824,-8.9852,0,0,0,0,0,0,-8.8579,-8.8659,-8.8633,-8.8832,-8.8906,-8.8977,-8.9079,-8.9048,-8.9142,-8.9128,-8.912,-8.9139,-8.9317,-8.9352,-8.9252,-8.9563,-8.9459,-8.9483,-8.9533,-8.9566,-8.9591,-8.9579,-8.9152,0,0,0,0,0,-8.8625,-8.8741,-8.8804,-8.8973,-8.9012,-8.904,-8.9105,-8.9098,-8.9173,-8.9203,-8.9246,-8.9319,-8.9427,-8.9498,-8.96,-8.9806,-8.9822,-8.99,-8.9925,-8.9946,-8.9967,-9.008,-9.0115,-8.9739,-8.9739,-8.9738,0,0,-8.8719,-8.8777,-8.885,-8.8995,-8.9051,-8.917,-8.9066,-8.9196,-8.9284,-8.9221,-8.9387,-8.9422,-8.9502,-8.9692,-8.9778,-8.9727,-9.0075,-8.9967,-8.9983,-8.9993,-9.01,-9.0136,-9.0167,-8.975,-8.9748,-8.9746,0,0,-8.8952,-8.9007,-8.9156,-8.9215,-8.9302,-8.932,-8.9356,-8.9433,-8.9455,-8.9621,-8.9577,-8.968,-8.9866,-8.9926,-8.998,-9.0238,-9.0198,-9.0271,-9.0405,-9.0515,-9.0545,-9.0571,-9.0663,-9.0697,-9.0292,-9.0292,-9.0292,0,-8.9057,-8.9237,-8.9235,-8.937,-8.9435,-8.9387,-8.9536,-8.9593,-8.9708,-8.9753,-8.9696,-8.9929,-8.998,-9.0184,-9.0247,-9.0293,-9.0333,-9.0262,-9.0541,-9.0567,-9.0592,-9.068,-9.0715,-9.03,-9.0299,-9.0299,-9.0298,0,-8.9363,-8.9488,-8.9597,-8.9713,-8.979,-8.9932,-8.995,-9.0028,-9.0015,-9.0038,-9.0208,-9.0268,-9.0382,-9.0429,-9.0416,-9.0632,-9.0598,-9.0541,-9.0437,-9.0636,-9.0719,-9.0752,-9.0312,-9.0309,-9.0307,-9.0305,0,0,-8.9661,-8.9777,-8.9817,-8.987,-8.9963,-9.0059,-9.0198,-9.0312,-9.038,-9.0461,-9.0577,-9.0736,-9.0685,-9.0747,-9.0741,-9.0837,-9.1039,-9.0768,-9.077,-9.0817,-9.1281,-9.1324,-9.1363,-9.1013,-9.1019,-9.1024,-9.1274,0,-8.9901,-9.0148,-9.0151,-9.0377,-9.0493,-9.045,-9.0571,-9.0641,-9.0667,-9.0767,-9.0794,-9.0908,-9.0831,-9.0869,-9.0963,-9.0995,-9.1132,-9.0976,-9.112,-9.1125,-9.1102,-9.1406,-9.1451,-9.1684,-9.1306,-9.1312,-9.1316,0,-9.0215,-9.031,-9.0548,-9.0627,-9.0676,-9.0785,-9.0891,-9.0988,-9.1066,-9.1078,-9.1149,-9.1128,-9.1269,-9.1161,-9.1354,-9.1248,-9.1307,-9.1331,-9.134,-9.1354,-9.1233,-9.1428,-9.1758,-9.1794,-9.1366,-9.1362,-9.1359,0,-9.041,-9.0597,-9.0765,-9.0811,-9.0906,-9.0985,-9.1027,-9.11,-9.1168,-9.126,-9.1304,-9.141,-9.1468,-9.1549,-9.1557,-9.1478,-9.1752,-9.1644,-9.1765,-9.1765,-9.1825,-9.1821,-9.217,-9.1862,-9.1862,-9.1861,-9.186,0,-9.0678,-9.0826,-9.0854,-9.0957,-9.1121,-9.1123,-9.1285,-9.1321,-9.1386,-9.1494,-9.1461,-9.1563,-9.1567,-9.1671,-9.1677,-9.1837,-9.1863,-9.1876,-9.1876,-9.1879,-9.1878,-9.1918,-9.1902,-9.187,-9.1868,-9.1866,-9.1865,0,-9.0924,-9.0949,-9.1129,-9.1206,-9.1229,-9.1346,-9.1411,-9.1509,-9.1532,-9.167,-9.1702,-9.1738,-9.1859,-9.1875,-9.2015,-9.2019,-9.2211,-9.2194,-9.2186,-9.2184,-9.2304,-9.2293,-9.2691,-9.2744,-9.2401,-9.2404,-9.2407,0,-9.1094,-9.1207,-9.1298,-9.1369,-9.1418,-9.1533,-9.1604,-9.161,-9.1684,-9.1783,-9.1869,-9.1987,-9.2082,-9.2277,-9.2314,-9.2421,-9.2406,-9.2539,-9.2422,-9.2423,-9.2409,-9.2403,-9.2414,-9.2561,-9.2565,-9.2568,-9.257,0,-9.1393,-9.1401,-9.1506,-9.1616,-9.1703,-9.1789,-9.187,-9.193,-9.1946,-9.2032,-9.2157,-9.2231,-9.2376,-9.2493,-9.26,-9.2641,-9.2609,-9.2607,-9.2641,-9.2646,-9.2637,-9.2644,-9.2248,-9.2598,-9.2595,-9.2593,-9.2591,-9.259,-9.1607,-9.1706,-9.1786,-9.1905,-9.1967,-9.2045,-9.2141,-9.2178,-9.2283,-9.2403,-9.2399,-9.2537,-9.2612,-9.2752,-9.2802,-9.2908,-9.2865,-9.2913,-9.2926,-9.2938,-9.2951,-9.262,-9.2927,-9.2926,-9.2926,-9.2925,-9.2925,0,-9.1905,-9.1955,-9.2065,-9.2181,-9.2274,-9.2238,-9.2327,-9.2407,-9.2529,-9.2603,-9.2698,-9.2842,-9.2956,-9.3004,-9.3115,-9.3191,-9.3179,-9.322,-9.3215,-9.3225,-9.2983,-9.2943,-9.3228,-9.3228,-9.3228,-9.3228,-9.3228,-9.3228,-9.2072,-9.2239,-9.2256,-9.2453,-9.2501,-9.2637,-9.2691,-9.2762,-9.2822,-9.2985,-9.3081,-9.3112,-9.3175,-9.3292,-9.3395,-9.3405,-9.3448,-9.3496,-9.35,-9.3273,-9.3242,-9.3213,-9.3175,-9.3505,-9.3506,-9.3734,-9.3736,-9.3738]}]]